TimeCST,TemperatureF,Dew PointF,Humidity,Sea Level PressureIn,VisibilityMPH,Wind Direction,Wind SpeedMPH,Gust SpeedMPH,PrecipitationIn,Events,Conditions,WindDirDegrees,DateUTC
12:15 AM,30.2,14.0,51,30.24,10.0,ENE,11.5,-,N/A,,Overcast,70,2013-02-21 06:15:00
12:35 AM,30.2,14.0,51,30.26,10.0,NE,11.5,-,N/A,,Overcast,50,2013-02-21 06:35:00
12:55 AM,30.2,14.0,51,30.25,10.0,ENE,12.7,-,N/A,,Overcast,60,2013-02-21 06:55:00
1:15 AM,30.2,14.0,51,30.24,10.0,ENE,13.8,-,N/A,,Overcast,60,2013-02-21 07:15:00
1:35 AM,30.2,14.0,51,30.24,10.0,ENE,9.2,-,N/A,,Overcast,60,2013-02-21 07:35:00
1:55 AM,30.2,14.0,51,30.24,10.0,ENE,12.7,-,N/A,,Overcast,70,2013-02-21 07:55:00
2:15 AM,30.2,14.0,51,30.24,10.0,ENE,10.4,-,N/A,,Overcast,60,2013-02-21 08:15:00
2:35 AM,30.2,14.0,51,30.23,10.0,ENE,10.4,-,N/A,,Overcast,60,2013-02-21 08:35:00
2:55 AM,30.2,14.0,51,30.22,10.0,ENE,12.7,-,N/A,,Overcast,60,2013-02-21 08:55:00
3:15 AM,30.2,14.0,51,30.21,10.0,NE,10.4,-,N/A,,Overcast,50,2013-02-21 09:15:00
3:35 AM,30.2,14.0,51,30.22,10.0,ENE,12.7,-,N/A,,Overcast,60,2013-02-21 09:35:00
3:55 AM,30.2,14.0,51,30.23,10.0,ENE,8.1,-,N/A,,Overcast,60,2013-02-21 09:55:00
4:15 AM,30.2,14.0,51,30.23,10.0,ENE,10.4,-,N/A,,Overcast,60,2013-02-21 10:15:00
4:35 AM,30.2,14.0,51,30.20,10.0,ENE,13.8,-,N/A,,Overcast,60,2013-02-21 10:35:00
5:15 AM,30.2,15.8,55,30.20,10.0,ENE,15.0,19.6,N/A,,Overcast,70,2013-02-21 11:15:00
5:55 AM,28.4,15.8,59,30.15,10.0,East,15.0,18.4,N/A,,Overcast,80,2013-02-21 11:55:00
6:15 AM,30.2,14.0,51,30.15,10.0,ENE,13.8,-,N/A,,Overcast,70,2013-02-21 12:15:00
6:35 AM,30.2,15.8,55,30.17,10.0,ENE,10.4,-,N/A,,Overcast,70,2013-02-21 12:35:00
6:55 AM,30.2,15.8,55,30.16,10.0,ENE,8.1,-,N/A,,Overcast,70,2013-02-21 12:55:00
7:15 AM,30.2,15.8,55,30.16,10.0,ENE,11.5,-,N/A,,Overcast,70,2013-02-21 13:15:00
7:35 AM,30.2,15.8,55,30.17,10.0,East,10.4,17.3,N/A,,Overcast,90,2013-02-21 13:35:00
7:55 AM,30.2,15.8,55,30.15,10.0,East,13.8,20.7,N/A,,Overcast,90,2013-02-21 13:55:00
8:15 AM,30.2,15.8,55,30.15,10.0,East,11.5,20.7,N/A,,Overcast,80,2013-02-21 14:15:00
8:35 AM,30.2,15.8,55,30.12,10.0,ENE,16.1,21.9,N/A,,Overcast,70,2013-02-21 14:35:00
8:55 AM,30.2,17.6,60,30.12,10.0,East,10.4,16.1,N/A,,Overcast,90,2013-02-21 14:55:00
9:15 AM,30.2,17.6,60,30.11,10.0,East,12.7,19.6,N/A,,Overcast,90,2013-02-21 15:15:00
9:35 AM,32.0,17.6,55,30.09,10.0,East,11.5,17.3,N/A,,Overcast,80,2013-02-21 15:35:00
9:55 AM,32.0,17.6,55,30.08,10.0,East,13.8,24.2,N/A,,Overcast,80,2013-02-21 15:55:00
10:15 AM,33.8,17.6,52,30.08,10.0,East,13.8,17.3,N/A,,Overcast,80,2013-02-21 16:15:00
10:35 AM,33.8,17.6,52,30.05,10.0,East,15.0,20.7,N/A,,Overcast,80,2013-02-21 16:35:00
10:55 AM,33.8,17.6,52,30.00,10.0,East,15.0,24.2,N/A,,Overcast,80,2013-02-21 16:55:00
11:15 AM,35.6,17.6,48,29.98,10.0,East,16.1,20.7,N/A,,Overcast,80,2013-02-21 17:15:00
11:35 AM,35.6,17.6,48,29.97,10.0,East,12.7,25.3,N/A,,Overcast,80,2013-02-21 17:35:00
11:55 AM,35.6,17.6,48,29.96,10.0,East,15.0,23.0,N/A,,Overcast,80,2013-02-21 17:55:00
12:15 PM,33.8,19.4,56,29.95,10.0,East,12.7,19.6,0.02,,Overcast,90,2013-02-21 18:15:00
12:35 PM,33.8,19.4,56,29.95,6.0,East,9.2,-,0.05,,Overcast,90,2013-02-21 18:35:00
12:55 PM,33.8,21.2,60,29.97,2.0,East,4.6,-,0.12,,Overcast,90,2013-02-21 18:55:00
1:15 PM,33.8,21.2,60,29.97,1.5,ENE,5.8,-,0.10,,Overcast,60,2013-02-21 19:15:00
1:35 PM,33.8,23.0,65,29.95,2.5,ENE,8.1,-,0.19,,Overcast,70,2013-02-21 19:35:00
1:55 PM,33.8,23.0,65,29.95,2.0,East,8.1,-,0.30,,Overcast,80,2013-02-21 19:55:00
2:15 PM,33.8,24.8,70,29.93,1.5,ENE,11.5,-,0.13,,Overcast,60,2013-02-21 20:15:00
2:35 PM,33.8,24.8,70,29.89,1.5,ENE,13.8,-,0.28,,Overcast,70,2013-02-21 20:35:00
2:55 PM,33.8,24.8,70,29.87,2.0,East,13.8,19.6,0.37,Thunderstorm,Overcast,80,2013-02-21 20:55:00
3:15 PM,33.8,24.8,70,29.84,1.5,East,16.1,24.2,0.14,Thunderstorm,Thunderstorm,80,2013-02-21 21:15:00
3:35 PM,33.8,24.8,70,29.84,1.0,East,12.7,25.3,0.39,Thunderstorm,Thunderstorm,90,2013-02-21 21:35:00
3:55 PM,33.8,24.8,70,29.85,9.0,ENE,13.8,20.7,0.41,Thunderstorm,Overcast,60,2013-02-21 21:55:00
4:15 PM,35.6,26.6,70,29.86,2.0,ESE,8.1,16.1,0.10,Thunderstorm,Overcast,110,2013-02-21 22:15:00
4:35 PM,35.6,26.6,70,29.85,10.0,East,10.4,-,0.12,,Overcast,90,2013-02-21 22:35:00
4:55 PM,35.6,26.6,70,29.88,4.0,East,5.8,-,0.14,,Overcast,80,2013-02-21 22:55:00
5:15 PM,35.6,26.6,70,29.86,6.0,East,11.5,-,0.04,,Overcast,80,2013-02-21 23:15:00
5:35 PM,35.6,26.6,70,29.86,5.0,East,8.1,17.3,0.05,,Overcast,90,2013-02-21 23:35:00
5:55 PM,35.6,26.6,70,29.84,7.0,East,12.7,18.4,0.06,,Overcast,90,2013-02-21 23:55:00
6:15 PM,35.6,28.4,75,29.84,5.0,East,12.7,16.1,0.04,,Overcast,80,2013-02-22 00:15:00
6:35 PM,37.4,28.4,70,29.83,10.0,East,13.8,19.6,0.04,,Overcast,90,2013-02-22 00:35:00
6:55 PM,37.4,28.4,70,29.83,10.0,East,12.7,18.4,0.04,,Overcast,90,2013-02-22 00:55:00
7:15 PM,37.4,28.4,70,29.81,10.0,East,13.8,19.6,0.01,,Overcast,90,2013-02-22 01:15:00
7:35 PM,37.4,28.4,70,29.80,10.0,East,11.5,17.3,0.01,,Overcast,100,2013-02-22 01:35:00
7:55 PM,39.2,30.2,70,29.82,10.0,East,5.8,-,0.02,,Overcast,80,2013-02-22 01:55:00
8:15 PM,39.2,30.2,70,29.86,10.0,WNW,6.9,-,N/A,,Overcast,300,2013-02-22 02:15:00
8:35 PM,39.2,30.2,70,29.85,7.0,ENE,4.6,-,0.04,,Overcast,70,2013-02-22 02:35:00
8:55 PM,37.4,30.2,75,29.83,5.0,ENE,8.1,-,0.04,,Overcast,70,2013-02-22 02:55:00
9:15 PM,39.2,30.2,70,29.83,6.0,ENE,8.1,-,N/A,,Overcast,70,2013-02-22 03:15:00
9:35 PM,39.2,30.2,70,29.84,8.0,East,5.8,-,N/A,,Overcast,80,2013-02-22 03:35:00
9:55 PM,39.2,30.2,70,29.85,10.0,East,4.6,-,N/A,,Overcast,80,2013-02-22 03:55:00
10:15 PM,39.2,30.2,70,29.85,10.0,East,3.5,-,N/A,,Overcast,80,2013-02-22 04:15:00
10:35 PM,39.2,32.0,75,29.85,7.0,East,5.8,-,N/A,,Overcast,90,2013-02-22 04:35:00
10:55 PM,39.2,32.0,75,29.85,7.0,ESE,4.6,-,N/A,,Overcast,110,2013-02-22 04:55:00
11:15 PM,39.2,32.0,75,29.86,8.0,SSW,3.5,-,N/A,,Overcast,200,2013-02-22 05:15:00
11:35 PM,39.2,32.0,75,29.86,6.0,South,3.5,-,N/A,,Overcast,190,2013-02-22 05:35:00
11:55 PM,39.2,32.0,75,29.87,6.0,SW,3.5,-,N/A,,Overcast,220,2013-02-22 05:55:00